Home > Weather > Hollywood > Past weeks

Flag for USA Past Weather in Hollywood, California, USA — Yesterday and Last 2 Weeks

Now
85 °F

Sunny.


Feels Like: 85 °F
Forecast: 65 / 82 °F
Wind: 10 mph from South

Location: Bob Hope Airport

Current Time: Jun 29, 2016 at 6:48:37 PM

Latest Report: Jun 29, 2016 at 5:53 PM


Visibility: 10 mi

Pressure: 29.79 "Hg

Humidity: 42%

Dew Point: 59 °F

Location of HollywoodLocation

Past Weather in Hollywood — Graph

°F

Hollywood Temperature Yesterday

Maximum temperature yesterday: 92 °F (at 2:53 PM)
Minimum temperature yesterday: 70 °F (at 4:53 AM)
Average temperature yesterday: 78 °F

High & Low Weather Summary for the Past Weeks

 TemperatureHumidityPressure
High111 °F (Jun 20, 4:53 PM)90% (Jun 23, 2:53 AM)30.01 "Hg (Jun 23, 2:53 AM)
Low56 °F (Jun 16, 5:53 AM)2% (Jun 19, 12:53 PM)29.78 "Hg (Jun 20, 4:53 PM)
Average77 °F52%29.89 "Hg
* Reported Jun 14 4:53 PM — Jun 29 4:53 PM, Hollywood, Weather by CustomWeather, © 2016

Note: Actual official high and low records may vary slightly from our data, if they occured in-between our weather recording intervals... More about our weather records

Advertising

Hollywood Weather History for the Previous 24 Hours

Scroll right to see more
 ConditionsComfort  
Time TempWeatherWind HumidityBarometerVisibility
4:53 PM
Wed, Jun 29
88 °FSunny.9 mph39%29.79 "Hg10 mi
3:53 PM89 °FSunny.9 mph39%29.80 "Hg10 mi
2:53 PM91 °FSunny.12 mph39%29.82 "Hg10 mi
1:53 PM89 °FSunny.10 mph42%29.83 "Hg6 mi
12:53 PM91 °FSunny.10 mph38%29.85 "Hg7 mi
11:53 AM87 °FSunny.6 mph43%29.85 "Hg9 mi
10:53 AM83 °FSunny.6 mph50%29.87 "Hg9 mi
9:53 AM79 °FSunny.5 mph58%29.88 "Hg8 mi
8:53 AM73 °FSunny.6 mph71%29.89 "Hg6 mi
7:53 AM70 °FSunny.No wind79%29.88 "Hg5 mi
6:53 AM67 °FFog.No wind87%29.88 "Hg5 mi
5:53 AM67 °FFog.3 mph87%29.88 "Hg6 mi
4:53 AM68 °FClear.3 mph82%29.87 "Hg8 mi
3:53 AM68 °FClear.5 mph82%29.87 "Hg10 mi
2:53 AM69 °FClear.No wind79%29.86 "Hg10 mi
1:53 AM69 °FClear.6 mph79%29.87 "Hg10 mi
12:53 AM70 °FClear.7 mph79%29.87 "Hg10 mi
11:53 PM
Tue, Jun 28
70 °FClear.5 mph79%29.87 "Hg10 mi
10:53 PM71 °FClear.9 mph76%29.87 "Hg10 mi
9:53 PM73 °FClear.8 mph71%29.87 "Hg10 mi
8:53 PM74 °FSunny.8 mph69%29.85 "Hg10 mi
7:53 PM77 °FSunny.7 mph62%29.85 "Hg10 mi
6:53 PM79 °FSunny.8 mph58%29.84 "Hg10 mi
Weather by CustomWeather, © 2016

See weather overviewHow to use our weather pages